When you browse on this site, cookies collect data to enhance your experience and personalize the content and advertising you see.
Visit our Privacy Policy to learn more. By continuing to use the site, you agree to this use of cookies and data.
  • In Portugal
  • List of Countries
  • For 7 days
  • Water Temperature
  • Weather Map
  • Weather Widgets
  • user-avatar
    Login

    Hourly Weather Linz

    Today, 22 August, Thursday

    Time Temperature Precipitation Wind Pressure Humidity
    00:00 +14°C° 0 mm 1 mps 741 mmHg 91%
    01:00 +14°C° 0 mm 1 mps 741 mmHg 91%
    02:00 +14°C° 0 mm 1 mps 740 mmHg 90%
    03:00 +14°C° 0 mm 1 mps 740 mmHg 90%
    04:00 +13°C° 0 mm 1 mps 740 mmHg 90%
    05:00 +14°C° 0 mm 2 mps 740 mmHg 88%
    06:00 +15°C° 0 mm 2 mps 740 mmHg 85%
    07:00 +16°C° 0 mm 2 mps 740 mmHg 83%
    08:00 +17°C° 0 mm 2 mps 740 mmHg 78%
    09:00 +19°C° 0 mm 3 mps 740 mmHg 73%
    10:00 +20°C° 0 mm 3 mps 740 mmHg 68%
    11:00 +21°C° 0 mm 3 mps 740 mmHg 65%
    12:00 +22°C° 0 mm 3 mps 740 mmHg 63%
    13:00 +24°C° 0 mm 3 mps 739 mmHg 60%
    14:00 +25°C° 0 mm 3 mps 739 mmHg 61%
    15:00 +25°C° 0 mm 3 mps 739 mmHg 61%
    16:00 +25°C° 0 mm 2 mps 739 mmHg 62%
    17:00 +23°C° 0.1 mm 2 mps 739 mmHg 68%
    18:00 +21°C° 0.1 mm 2 mps 739 mmHg 75%
    19:00 +20°C° 0.1 mm 1 mps 739 mmHg 82%
    20:00 +19°C° 0 mm 1 mps 739 mmHg 84%
    21:00 +19°C° 0 mm 1 mps 740 mmHg 85%
    22:00 +18°C° 0 mm 1 mps 740 mmHg 87%
    23:00 +18°C° 0 mm 1 mps 740 mmHg 89%

    Tomorrow, 23 August, Friday

    Time Temperature Precipitation Wind Pressure Humidity
    00:00 +16°C° 0 mm 1 mps 740 mmHg 90%
    01:00 +16°C° 0 mm 1 mps 740 mmHg 91%
    02:00 +16°C° 0 mm 1 mps 740 mmHg 92%
    03:00 +16°C° 0 mm 1 mps 739 mmHg 92%
    04:00 +15°C° 0 mm 1 mps 739 mmHg 93%
    05:00 +16°C° 0 mm 1 mps 739 mmHg 91%
    06:00 +18°C° 0 mm 1 mps 739 mmHg 89%
    07:00 +18°C° 0 mm 1 mps 739 mmHg 86%
    08:00 +20°C° 0 mm 1 mps 740 mmHg 81%
    09:00 +21°C° 0 mm 2 mps 740 mmHg 76%
    10:00 +23°C° 0 mm 2 mps 740 mmHg 70%
    11:00 +24°C° 0 mm 2 mps 739 mmHg 68%
    12:00 +25°C° 0 mm 3 mps 739 mmHg 66%
    13:00 +26°C° 0 mm 3 mps 738 mmHg 64%
    14:00 +26°C° 0.2 mm 2 mps 738 mmHg 68%
    15:00 +25°C° 0.2 mm 2 mps 738 mmHg 73%
    16:00 +25°C° 0.2 mm 2 mps 738 mmHg 77%
    17:00 +24°C° 0.2 mm 2 mps 738 mmHg 80%
    18:00 +23°C° 0.2 mm 1 mps 738 mmHg 84%
    19:00 +22°C° 0.2 mm 1 mps 738 mmHg 87%
    20:00 +22°C° 0.4 mm 1 mps 738 mmHg 89%
    21:00 +21°C° 0.4 mm 1 mps 738 mmHg 91%
    22:00 +21°C° 0.4 mm 1 mps 738 mmHg 93%
    23:00 +20°C° 0.2 mm 1 mps 738 mmHg 93%

    Day after tomorrow, 24 August, Saturday

    Time Temperature Precipitation Wind Pressure Humidity
    00:00 +20°C° 0.2 mm 1 mps 737 mmHg 94%
    01:00 +19°C° 0.2 mm 1 mps 737 mmHg 95%
    02:00 +19°C° 0 mm 1 mps 737 mmHg 95%
    03:00 +19°C° 0 mm 1 mps 737 mmHg 95%
    04:00 +16°C° 0 mm 0 mps 737 mmHg 95%
    05:00 +17°C° 0 mm 0 mps 737 mmHg 94%
    06:00 +18°C° 0 mm 0 mps 737 mmHg 94%
    07:00 +18°C° 0 mm 0 mps 737 mmHg 93%
    08:00 +19°C° 0 mm 0 mps 737 mmHg 89%
    09:00 +23°C° 0 mm 1 mps 737 mmHg 84%
    10:00 +24°C° 0 mm 1 mps 737 mmHg 80%
    11:00 +25°C° 0 mm 1 mps 737 mmHg 75%
    12:00 +26°C° 0 mm 1 mps 736 mmHg 70%
    13:00 +28°C° 0 mm 1 mps 736 mmHg 66%
    14:00 +28°C° 0.5 mm 1 mps 736 mmHg 67%
    15:00 +28°C° 0.5 mm 1 mps 736 mmHg 68%
    16:00 +28°C° 0.5 mm 2 mps 735 mmHg 69%
    17:00 +26°C° 0.1 mm 1 mps 735 mmHg 75%
    18:00 +25°C° 0.1 mm 1 mps 735 mmHg 80%
    19:00 +23°C° 0.1 mm 1 mps 735 mmHg 86%
    20:00 +22°C° 0.1 mm 1 mps 735 mmHg 87%
    21:00 +22°C° 0.1 mm 1 mps 735 mmHg 88%
    22:00 +21°C° 0.1 mm 1 mps 736 mmHg 89%
    23:00 +20°C° 0.1 mm 1 mps 735 mmHg 89%

    25 August, Sunday

    Time Temperature Precipitation Wind Pressure Humidity
    00:00 +20°C° 0.1 mm 1 mps 735 mmHg 89%
    01:00 +17°C° 0.1 mm 0 mps 735 mmHg 89%
    02:00 +17°C° 0.1 mm 0 mps 735 mmHg 89%
    03:00 +17°C° 0.1 mm 0 mps 735 mmHg 90%
    04:00 +16°C° 0.1 mm 0 mps 735 mmHg 90%
    05:00 +17°C° 0 mm 0 mps 735 mmHg 88%
    06:00 +18°C° 0 mm 0 mps 735 mmHg 87%
    07:00 +19°C° 0 mm 0 mps 735 mmHg 86%
    08:00 +21°C° 0 mm 0 mps 736 mmHg 81%
    09:00 +22°C° 0 mm 0 mps 736 mmHg 76%
    10:00 +24°C° 0 mm 0 mps 736 mmHg 71%
    11:00 +27°C° 0.2 mm 1 mps 736 mmHg 68%
    12:00 +28°C° 0.2 mm 1 mps 736 mmHg 65%
    13:00 +29°C° 0.2 mm 1 mps 735 mmHg 62%
    14:00 +29°C° 0.2 mm 1 mps 735 mmHg 60%
    15:00 +29°C° 0.2 mm 1 mps 735 mmHg 59%
    16:00 +30°C° 0.2 mm 1 mps 735 mmHg 57%
    17:00 +28°C° 0.2 mm 1 mps 735 mmHg 64%
    18:00 +26°C° 0.2 mm 1 mps 735 mmHg 70%
    19:00 +24°C° 0.2 mm 1 mps 735 mmHg 77%
    20:00 +23°C° 0.3 mm 1 mps 735 mmHg 80%
    21:00 +22°C° 0.3 mm 1 mps 736 mmHg 84%
    22:00 +19°C° 0.3 mm 0 mps 736 mmHg 87%
    23:00 +19°C° 0 mm 0 mps 736 mmHg 88%

    26 August, Monday

    Time Temperature Precipitation Wind Pressure Humidity
    00:00 +19°C° 0 mm 0 mps 736 mmHg 89%
    01:00 +18°C° 0 mm 0 mps 736 mmHg 90%
    02:00 +18°C° 0.3 mm 0 mps 736 mmHg 90%
    03:00 +17°C° 0.3 mm 0 mps 736 mmHg 91%
    04:00 +17°C° 0.3 mm 0 mps 736 mmHg 92%
    05:00 +18°C° 0 mm 0 mps 736 mmHg 91%
    06:00 +19°C° 0 mm 0 mps 736 mmHg 89%
    07:00 +20°C° 0 mm 0 mps 737 mmHg 88%
    08:00 +21°C° 0.1 mm 0 mps 737 mmHg 82%
    09:00 +25°C° 0.1 mm 1 mps 737 mmHg 76%
    10:00 +27°C° 0.1 mm 1 mps 737 mmHg 70%
    11:00 +28°C° 0.3 mm 1 mps 737 mmHg 66%
    12:00 +29°C° 0.3 mm 1 mps 737 mmHg 63%
    13:00 +30°C° 0.3 mm 1 mps 737 mmHg 59%
    14:00 +30°C° 0.1 mm 1 mps 737 mmHg 57%
    15:00 +28°C° 0.1 mm 0 mps 737 mmHg 56%
    16:00 +28°C° 0.1 mm 0 mps 737 mmHg 54%
    17:00 +26°C° 0.1 mm 0 mps 736 mmHg 61%
    18:00 +26°C° 0.1 mm 1 mps 736 mmHg 67%
    19:00 +24°C° 0.1 mm 1 mps 736 mmHg 74%
    20:00 +23°C° 0 mm 1 mps 737 mmHg 77%
    21:00 +23°C° 0 mm 1 mps 737 mmHg 80%
    22:00 +22°C° 0 mm 1 mps 737 mmHg 83%
    23:00 +21°C° 0.1 mm 1 mps 737 mmHg 84%

    27 August, Tuesday

    Time Temperature Precipitation Wind Pressure Humidity
    00:00 +21°C° 0.1 mm 1 mps 737 mmHg 86%
    01:00 +18°C° 0.1 mm 0 mps 737 mmHg 87%
    02:00 +18°C° 0 mm 0 mps 737 mmHg 88%
    03:00 +18°C° 0 mm 0 mps 737 mmHg 88%
    04:00 +17°C° 0 mm 0 mps 736 mmHg 89%
    05:00 +18°C° 0 mm 0 mps 736 mmHg 87%
    06:00 +19°C° 0 mm 0 mps 737 mmHg 85%
    07:00 +20°C° 0 mm 0 mps 737 mmHg 83%
    08:00 +23°C° 0 mm 1 mps 737 mmHg 77%
    09:00 +25°C° 0 mm 1 mps 736 mmHg 71%
    10:00 +27°C° 0 mm 2 mps 736 mmHg 65%
    11:00 +28°C° 0 mm 2 mps 736 mmHg 61%
    12:00 +30°C° 0 mm 2 mps 736 mmHg 56%
    13:00 +31°C° 0 mm 2 mps 736 mmHg 51%
    14:00 +31°C° 0 mm 2 mps 735 mmHg 50%
    15:00 +31°C° 0 mm 3 mps 735 mmHg 49%
    16:00 +33°C° 0 mm 3 mps 734 mmHg 48%
    17:00 +30°C° 0 mm 3 mps 734 mmHg 54%
    18:00 +27°C° 0 mm 3 mps 734 mmHg 60%
    19:00 +25°C° 0 mm 3 mps 734 mmHg 65%
    20:00 +24°C° 0 mm 2 mps 734 mmHg 67%
    21:00 +24°C° 0 mm 2 mps 734 mmHg 68%
    22:00 +23°C° 0 mm 2 mps 734 mmHg 69%
    23:00 +21°C° 0 mm 2 mps 734 mmHg 71%
    Show more